Simultaneous Nadir Overpasses (SNOs) Predictions

Prediction of SNOs between GOES-14 and NPP Satellite Orbit:

Table of predicted SNOs for the next 14.0 days since TLE Epoch: 8/21/2021
Index Date Time (GOES-14) GOES-14 Lat,Lon NPP Lat,Lon Distance(km) Time Diff (sec)
1 08/21/2021 20:11:30 -0.40,-104.37 0.28,-101.31 348.80 80
2 08/23/2021 08:33:18 0.41,-104.18 0.96,-106.56 271.79 80
3 08/24/2021 08:11:54 0.40,-104.17 -0.09,-102.04 243.12 80
4 08/25/2021 20:33:52 -0.41,-104.34 -1.09,-107.35 342.53 80
5 08/26/2021 20:17:48 -0.41,-104.35 -0.04,-102.83 174.59 80
6 08/28/2021 08:39:35 0.41,-104.20 1.28,-108.08 442.39 80
7 08/29/2021 08:18:11 0.41,-104.19 0.29,-103.55 72.56 80
8 08/31/2021 20:24:05 -0.41,-104.34 -0.42,-104.33 1.64 80
9 09/03/2021 08:27:09 0.40,-104.20 0.61,-105.07 99.05 80
